Overview Statistics Trail Chart Weather Telemetry Raw packets
 

This is the latest recevied weather packets stored in our database for station/object OE-11190. If no packets are shown the sender has not sent any weather packets the latest 10 day(s).

<< 1 2 3 4 5 6 7 >>
Time Temp. Humidity Pressure Rain* Wind** Luminosity Snow
1788364508 26.11° C 46% 1017.8 hPa 0 mm - 91 W/m² -
1788363681 26.11° C 46% 1017.8 hPa 0 mm - 91 W/m² -
1788363308 26.67° C 44% 1017.8 hPa 0 mm - 91 W/m² -
1788362707 26.67° C 44% 1017.7 hPa 0 mm - 99 W/m² -
1788361881 26.67° C 43% 1017.8 hPa 0 mm - 114 W/m² -
1788361508 26.67° C 43% 1017.8 hPa 0 mm - 152 W/m² -
1788360908 26.67° C 44% 1018 hPa 0 mm - 159 W/m² -
1788360081 26.67° C 44% 1018 hPa 0 mm - 152 W/m² -
1788359707 27.22° C 43% 1018 hPa 0 mm - 190 W/m² -
1788359108 27.22° C 42% 1018 hPa 0 mm - 190 W/m² -
1788358281 27.22° C 42% 1018 hPa 0 mm - 212 W/m² -
1788357908 28.33° C 41% 1017.9 hPa 0 mm - 569 W/m² -
1788357308 27.78° C 41% 1018 hPa 0 mm - 523 W/m² -
1788356480 28.33° C 41% 1018 hPa 0 mm - 425 W/m² -
1788356108 28.33° C 40% 1018 hPa 0 mm - 637 W/m² -
1788355508 27.78° C 39% 1018.2 hPa 0 mm - 607 W/m² -
1788354681 27.78° C 39% 1018.3 hPa 0 mm - 660 W/m² -
1788354308 28.33° C 38% 1018.3 hPa 0 mm - 682 W/m² -
1788353708 27.78° C 39% 1018.4 hPa 0 mm - 682 W/m² -
1788352880 27.78° C 40% 1018.5 hPa 0 mm - 705 W/m² -
1788352508 27.22° C 41% 1018.7 hPa 0 mm - 682 W/m² -
1788351908 27.22° C 40% 1018.9 hPa 0 mm - 705 W/m² -
1788351081 27.22° C 42% 1018.9 hPa 0 mm - 713 W/m² -
1788350707 27.22° C 41% 1019.1 hPa 0 mm - 735 W/m² -
1788350107 27.22° C 40% 1018.9 hPa 0 mm - 735 W/m² -

* Rain latest hour (hover to see other rain measurements)
** Current wind speed in m/s (hover to see current wind gust speed)